Skip Page Navigation
NASA JPL Caltech
NASA Logo - Jet Propulsion Laboratory + View the NASA Portal
+ Center for Near-Earth Object Studies
JPL Home Earth Solar System Stars & Galaxies Technology
JPL Solar System Dynamics
BODIES ORBITS EPHEMERIDES TOOLS PHYSICAL DATA DISCOVERY FAQ SITE MAP
JPL Small-Body Database Browser
Search: [ help ]  
134972 (2001 EV24)
Classification: Main-belt Asteroid          SPK-ID: 2134972
Ephemeris | Orbit Diagram | Orbital Elements | Mission Design | Physical Parameters | Discovery Circumstances | Close-Approach Data ]

[ show orbit diagram ]
Orbital Elements at Epoch 2459200.5 (2020-Dec-17.0) TDB
Reference: JPL 26 (heliocentric ecliptic J2000)
 Element Value Uncertainty (1-sigma)   Units 
e .2690027943255597 4.9625e-08  
a 2.290996948314834 1.0063e-08 au
q 1.674712367426814 1.1354e-07 au
i 25.05781256947603 5.7955e-06 deg
node 34.25933924039465 7.5485e-06 deg
peri 6.022282706071273 1.3435e-05 deg
M 5.712658134631437 7.9853e-06 deg
tp 2459180.401163038145
(2020-Nov-26.90116304)
2.8135e-05 TDB
period 1266.58748620087
3.47
8.3451e-06
2.285e-08
d
yr
n .2842282936805419 1.8727e-09 deg/d
Q 2.907281529202855 1.277e-08 au
  Orbit Determination Parameters
   # obs. used (total)      1362  
   data-arc span      13989 days (38.30 yr)  
   first obs. used      1982-11-14  
   last obs. used      2021-03-03  
   planetary ephem.      DE441  
   SB-pert. ephem.      SB441-N16  
   condition code      0  
   norm. resid. RMS      .42351  
   source      ORB  
   producer      Otto Matic  
   solution date      2021-Apr-13 18:10:57  

Additional Information
 Earth MOID = .682143 au 
 Jupiter MOID = 2.53766 au 
 T_jup = 3.429 
[ show covariance matrix ]

Ephemeris | Orbit Diagram | Orbital Elements | Mission Design | Physical Parameters | Discovery Circumstances | Close-Approach Data ]

Physical Parameter Table
Parameter Symbol Value Units Sigma Reference Notes
absolute magnitude H 14.99   n/a E2021B55  
diameter diameter 2.708 km 0.592 urn:nasa:pds:neowise_diameters_albedos::2.0[mainbelt] (http://adsabs.harvard.edu/abs/2012ApJ...759L...8M)  
geometric albedo albedo 0.348   0.135 urn:nasa:pds:neowise_diameters_albedos::2.0[mainbelt] (http://adsabs.harvard.edu/abs/2012ApJ...759L...8M)  

134972 (2001 EV24)          Discovered 2001-Mar-15 by LINEAR at Socorro
Reference: 20060907/Numbers.arcLast Updated: 2006-09-10

[ show close-approach data ]
Alternate Designations
 2001 EV24 = 1982 VA 
Ephemeris | Orbit Diagram | Orbital Elements | Mission Design | Physical Parameters | Discovery Circumstances | Close-Approach Data ]
ABOUT SSD CREDITS/AWARDS PRIVACY/COPYRIGHT GLOSSARY LINKS
FirstGov 2021-Apr-14 21:43 UT
(server date/time)  
NASA Home Page
Site Manager:   Ryan S. Park
Webmaster  Alan B. Chamberlin